User: anonymous   Login
Location: Keppel Henge
(44.7900°N, 80.9447°W)
Time: 08:35:52
(UTC-04:00)
Language:

Envisat - Orbit

View from above orbital plane
View from above orbital plane
View from above satellite
View from above satellite

Ground track
Ground track

The orbit data is extracted from the following two-line orbital elements,

1 27386U 02009A   18175.11673755 -.00000008  00000-0  10820-4 0  9998
2 27386  98.1835 208.8512 0001256  94.8118 281.8660 14.37924450854527
Epoch (UTC): 24 June 2018 02:48:06
Eccentricity: 0.0001256
inclination: 98.1835°
perigee height: 764 km
apogee height: 766 km
right ascension of ascending node: 208.8512°
argument of perigee: 94.8118°
revolutions per day: 14.37924450
mean anomaly at epoch: 281.8660°
orbit number at epoch: 85452

The dashed part of the orbit path shows where the satellite is in the earth's shadow,  

DLR